Location: North Evanston
(42.0634°N, 87.6976°W)
Time: 15:09:44
(UTC+00:00)

Vanguard 2 - Pass Details

Date: 17 May 2026
Orbit: 553 x 2894 km, 32.9° (Epoch: 8 June)

Event Time Altitude Azimuth Distance (km) Brightness Sun altitude
Rises 10:45:05 0° 270° (W) 6,726 11.7 2.0°
Reaches altitude 10° 10:49:44 10° 266° (W) 5,700 11.4 2.8°
Maximum altitude 11:06:09 54° 197° (SSW) 2,855 10.3 5.6°
Drops below altitude 10° 11:17:57 10° 124° (SE) 4,211 11.9 7.7°
Sets 11:20:51 0° 119° (ESE) 4,924 12.3 8.2°
